[[{"header":{"parameterUnit":"m.s-1","parameterCategory":1,"la1":30.2991,"la2":30.254,"lo1":-89.0895,"lo2":-89.0444,"dy":0.0017,"dx":0.0017,"nx":28,"ny":28,"refTime":"2024-05-01T09:00:00:Z","depth":0,"parameterNumber":2,"parameterNumberName":"U-component_of_WINDS"},"data":[0,0,0,0,0,0,0,0,0,0,0,0,0,0,0,0,0,0,0,0,0,0,0,0,0,0,0,0,0,0,0,0,0,0,0,0,0,0,0,0,0,0,0,0,0,0,0,0,0,0,0,0,0,0,0,0,0,0,-3.6717,-3.6717,0,-3.6676,-3.6676,-3.6675,-3.6593,-3.6591,-3.659,-3.6588,-3.6547,-3.6547,-3.6548,0,0,0,0,0,0,0,0,0,0,0,0,0,-3.6727,-3.6727,-3.6717,-3.6717,-3.6716,-3.6676,-3.6676,-3.6675,-3.6593,-3.6591,-3.6589,-3.6588,-3.6547,-3.6547,-3.6548,0,0,0,0,0,0,0,0,0,0,0,0,0,-3.6708,-3.6728,-3.6717,-3.6671,-3.6666,-3.6676,-3.6676,-3.6675,-3.6594,-3.6591,-3.6589,-3.6587,-3.6546,-3.6547,-3.6548,-3.66,0,0,-3.655,-3.655,0,0,0,0,0,0,0,0,-3.6709,-3.6708,-3.6678,-3.6674,-3.6669,-3.6637,-3.6664,-3.665,-3.6594,-3.6621,-3.6588,-3.6585,-3.6579,-3.6577,-3.6574,-3.6598,-3.6597,-3.655,-3.655,-3.655,-3.655,0,0,0,0,0,0,0,-3.6711,-3.6709,-3.6701,-3.6678,-3.6672,-3.6652,-3.6647,-3.6661,-3.6614,-3.6619,-3.6613,-3.6609,-3.6576,-3.6574,-3.6573,-3.6596,-3.655,-3.655,-3.6551,-3.6551,-3.6663,-3.6665,0,0,0,0,0,0,-3.6719,-3.6711,-3.6702,-3.67,-3.6684,-3.6654,-3.6648,-3.665,-3.6614,-3.6606,-3.6611,-3.6605,-3.6574,-3.6572,-3.6571,-3.663,-3.655,-3.6551,-3.6551,-3.666,-3.6663,-3.6666,0,0,0,0,0,0,-3.6719,-3.6719,-3.6704,-3.6704,-3.67,-3.6657,-3.6659,-3.665,-3.6648,-3.6608,-3.6599,-3.6617,-3.6572,-3.657,-3.6594,-3.6628,-3.6551,-3.6552,-3.6657,-3.6661,-3.6665,-3.675,0,0,0,0,0,0,-3.672,-3.6719,-3.6738,-3.6705,-3.6701,-3.6727,-3.6661,-3.6651,-3.6649,-3.6641,-3.6612,-3.6605,-3.657,-3.6593,-3.6595,-3.6627,-3.6552,-3.6654,-3.6659,-3.6663,-3.6744,-3.6756,-3.6767,0,0,0,0,0,-3.6721,-3.6764,-3.674,-3.6739,-3.6723,-3.6729,-3.6727,-3.6686,-3.6653,-3.6671,-3.6646,-3.6605,-3.6625,-3.6597,-3.6597,-3.6631,-3.6651,-3.6657,-3.6663,-3.6738,-3.6754,-3.6766,0,0,0,0,0,0,-3.6802,-3.6758,-3.6731,-3.6765,-3.6752,-3.6715,-3.6738,-3.6703,-3.6699,-3.6692,-3.6642,-3.6636,-3.6667,-3.6651,-3.6621,-3.668,-3.6632,-3.6638,-3.6689,-3.6703,-3.6714,-3.6716,-3.6553,0,0,0,0,0,-3.6824,-3.6832,-3.6794,-3.6827,-3.6822,-3.6782,-3.6783,-3.6753,-3.6737,-3.6731,-3.6707,-3.6693,-3.6696,-3.6699,-3.6699,-3.6742,-3.6734,-3.6765,-3.6777,-3.6787,-3.6792,-3.6814,-3.6827,-3.6685,-3.6685,-3.6685,0,0,-3.687,-3.6847,-3.6855,-3.6843,-3.6829,-3.6839,-3.6777,-3.679,-3.6797,-3.6732,-3.6753,-3.6736,-3.6718,-3.6751,-3.6765,-3.6739,-3.683,-3.6794,-3.6802,-3.6802,-3.6821,-3.6835,-3.6847,-3.6689,-3.6688,-3.6688,0,0,-3.6957,-3.6941,-3.6967,-3.6954,-3.6934,-3.6907,-3.6914,-3.6884,-3.6869,-3.689,-3.6842,-3.685,-3.6856,-3.6845,-3.6841,-3.6927,-3.689,-3.6929,-3.6988,-3.701,-3.7021,-3.7031,-3.7061,-3.7073,-3.6935,-3.6935,-3.6935,0,-3.7015,-3.7028,-3.6985,-3.7001,-3.6997,-3.694,-3.6967,-3.6957,-3.6939,-3.6938,-3.691,-3.6917,-3.6901,-3.6932,-3.6953,-3.6951,-3.6957,-3.6931,-3.7023,-3.7032,-3.7041,-3.7069,-3.7081,-3.694,-3.6939,-3.6939,-3.6938,0,-3.7101,-3.7111,-3.7134,-3.7118,-3.7118,-3.7139,-3.71,-3.7105,-3.7076,-3.7053,-3.7075,-3.7054,-3.7049,-3.7055,-3.7026,-3.7082,-3.7067,-3.7032,-3.6982,-3.706,-3.7086,-3.7096,-3.6947,-3.6945,-3.6944,-3.6942,0,0,-3.7236,-3.7197,-3.7206,-3.7198,-3.7173,-3.718,-3.72,-3.7196,-3.7201,-3.7191,-3.7206,-3.7214,-3.7182,-3.7177,-3.7148,-3.7167,-3.7237,-3.713,-3.7129,-3.715,-3.7297,-3.7322,-3.7335,-3.7213,-3.7215,-3.7217,-3.7298,0,-3.7316,-3.7347,-3.7309,-3.7348,-3.7357,-3.7304,-3.7322,-3.7309,-3.7288,-3.7293,-3.7271,-3.7277,-3.7234,-3.7231,-3.7248,-3.7225,-3.7266,-3.7219,-3.7227,-3.7227,-3.7231,-3.7349,-3.7375,-3.7453,-3.7308,-3.731,-3.7311,0,-3.7414,-3.7408,-3.7448,-3.7422,-3.7424,-3.744,-3.7434,-3.7439,-3.7424,-3.7408,-3.7404,-3.7369,-3.7387,-3.734,-3.7365,-3.7334,-3.7336,-3.7325,-3.7327,-3.7325,-3.7273,-3.7349,-3.7477,-3.7489,-3.7327,-3.7325,-3.7324,0,-3.7507,-3.7511,-3.7535,-3.753,-3.75,-3.7512,-3.7501,-3.7483,-3.7483,-3.7479,-3.7478,-3.7476,-3.7475,-3.7475,-3.744,-3.7409,-3.747,-3.742,-3.7457,-3.7458,-3.747,-3.7469,-3.7599,-3.7474,-3.7474,-3.7474,-3.7473,0,-3.76,-3.7627,-3.7576,-3.7591,-3.7619,-3.7577,-3.7607,-3.759,-3.7575,-3.7586,-3.7542,-3.7553,-3.7508,-3.7515,-3.7489,-3.7514,-3.7514,-3.7501,-3.7494,-3.7504,-3.7506,-3.7503,-3.7497,-3.7477,-3.7476,-3.7475,-3.7475,0,-3.7709,-3.7676,-3.7699,-3.7669,-3.7663,-3.7685,-3.7659,-3.7672,-3.765,-3.7665,-3.7666,-3.7631,-3.7637,-3.7603,-3.7604,-3.7586,-3.7624,-3.7608,-3.7629,-3.7623,-3.7662,-3.7658,-3.7793,-3.7809,-3.7675,-3.7676,-3.7678,0,-3.7769,-3.7788,-3.7761,-3.7765,-3.7756,-3.7763,-3.7763,-3.7724,-3.7726,-3.7712,-3.7727,-3.7729,-3.7729,-3.7742,-3.7717,-3.7717,-3.77,-3.7747,-3.7699,-3.771,-3.77,-3.7698,-3.77,-3.7757,-3.7758,-3.776,-3.7761,0,-3.7881,-3.7864,-3.7866,-3.7863,-3.7864,-3.786,-3.7853,-3.7859,-3.7816,-3.7822,-3.7827,-3.7828,-3.7828,-3.7832,-3.7828,-3.7816,-3.7782,-3.7777,-3.7785,-3.7795,-3.7806,-3.78,-3.7654,-3.7773,-3.7772,-3.7771,-3.777,-3.777,-3.7966,-3.7981,-3.7964,-3.7968,-3.7959,-3.7953,-3.7964,-3.7944,-3.7948,-3.7945,-3.7922,-3.7932,-3.7918,-3.7909,-3.7901,-3.7909,-3.7887,-3.7899,-3.7902,-3.7906,-3.7912,-3.7807,-3.7909,-3.7908,-3.7908,-3.7908,-3.7907,0,-3.8074,-3.8061,-3.8066,-3.8057,-3.8061,-3.8029,-3.802,-3.8025,-3.8034,-3.8024,-3.8025,-3.8033,-3.8036,-3.8013,-3.8013,-3.8024,-3.8009,-3.8026,-3.8024,-3.8022,-3.7932,-3.7925,-3.8038,-3.8038,-3.8038,-3.8038,-3.8038,-3.8038,-3.8131,-3.8154,-3.8136,-3.8154,-3.8141,-3.8151,-3.8148,-3.8144,-3.8135,-3.8146,-3.8148,-3.8133,-3.8118,-3.8117,-3.8119,-3.8112,-3.8114,-3.8137,-3.8124,-3.8041,-3.8028,-3.8016,-3.8008,-3.8138,-3.8138,-3.8213,-3.8213,-3.8214]},{"header":{"parameterUnit":"m.s-1","parameterCategory":1,"la1":30.2991,"la2":30.254,"lo1":-89.0895,"lo2":-89.0444,"dy":0.0017,"dx":0.0017,"nx":28,"ny":28,"refTime":"2024-05-01T09:00:00:Z","depth":0,"parameterNumber":3,"parameterNumberName":"V-component_of_WINDS"},"data":[0,0,0,0,0,0,0,0,0,0,0,0,0,0,0,0,0,0,0,0,0,0,0,0,0,0,0,0,0,0,0,0,0,0,0,0,0,0,0,0,0,0,0,0,0,0,0,0,0,0,0,0,0,0,0,0,0,0,4.1127,4.1127,0,4.1143,4.1143,4.1144,4.1138,4.1137,4.1137,4.1137,4.1151,4.1152,4.1153,0,0,0,0,0,0,0,0,0,0,0,0,0,4.1089,4.109,4.1127,4.1127,4.1127,4.1143,4.1144,4.1144,4.1138,4.1137,4.1137,4.1136,4.1151,4.1152,4.1153,0,0,0,0,0,0,0,0,0,0,0,0,0,4.1105,4.109,4.1127,4.1126,4.1126,4.1143,4.1144,4.1144,4.1138,4.1137,4.1137,4.1136,4.1151,4.1152,4.1153,4.1171,0,0,4.1156,4.1157,0,0,0,0,0,0,0,0,4.1104,4.1107,4.1126,4.1126,4.1126,4.1138,4.1136,4.1153,4.1138,4.1133,4.1137,4.1136,4.1147,4.1149,4.1153,4.1171,4.1172,4.1156,4.1157,4.1158,4.1158,0,0,0,0,0,0,0,4.1103,4.1106,4.1133,4.1126,4.1127,4.1125,4.1127,4.1139,4.1143,4.1134,4.1133,4.1136,4.1147,4.1152,4.1153,4.1172,4.1156,4.1157,4.1158,4.1158,4.1208,4.1208,0,0,0,0,0,0,4.1102,4.1105,4.1133,4.1134,4.1114,4.1126,4.1128,4.1135,4.1143,4.1144,4.1136,4.1135,4.115,4.1152,4.1154,4.1176,4.1158,4.1159,4.1159,4.1207,4.1208,4.1209,0,0,0,0,0,0,4.1101,4.1105,4.1132,4.1119,4.1123,4.1127,4.1135,4.1135,4.114,4.1145,4.1145,4.114,4.115,4.1152,4.1167,4.1177,4.1159,4.116,4.1206,4.1207,4.1208,4.1221,0,0,0,0,0,0,4.11,4.1105,4.1112,4.112,4.1123,4.1146,4.1136,4.1136,4.1142,4.1141,4.1149,4.1149,4.115,4.1165,4.1168,4.1178,4.1161,4.1206,4.1207,4.1208,4.122,4.1222,4.1224,0,0,0,0,0,4.1099,4.1113,4.1112,4.1115,4.1132,4.1146,4.1148,4.1149,4.1143,4.115,4.1153,4.1149,4.1175,4.1167,4.117,4.118,4.1205,4.1207,4.1208,4.1219,4.1222,4.1224,0,0,0,0,0,0,4.1105,4.1114,4.1113,4.113,4.1138,4.1145,4.1154,4.1152,4.116,4.1159,4.1159,4.1161,4.1177,4.118,4.1171,4.1199,4.1189,4.1191,4.1196,4.1199,4.1201,4.1201,4.1162,0,0,0,0,0,4.1109,4.112,4.1127,4.1142,4.1146,4.1149,4.1155,4.1155,4.1163,4.1165,4.117,4.1176,4.1186,4.1193,4.1202,4.122,4.1222,4.1228,4.1231,4.1233,4.1235,4.1246,4.1249,4.1214,4.1214,4.1213,0,0,4.1116,4.1122,4.1129,4.1143,4.1149,4.116,4.1152,4.1164,4.1172,4.1167,4.1182,4.1185,4.1193,4.121,4.1218,4.1213,4.1245,4.1234,4.1236,4.1237,4.1248,4.1251,4.1254,4.1215,4.1214,4.1214,0,0,4.1135,4.114,4.1154,4.1161,4.117,4.1173,4.1176,4.1184,4.1187,4.1202,4.1199,4.1208,4.1225,4.1231,4.1236,4.1259,4.1256,4.1262,4.1275,4.1286,4.1288,4.1291,4.13,4.1304,4.1264,4.1264,4.1264,0,4.1142,4.116,4.1161,4.1175,4.1181,4.1178,4.1192,4.1198,4.1209,4.1214,4.1209,4.1231,4.1235,4.1255,4.1261,4.1264,4.1269,4.1262,4.1288,4.129,4.1293,4.1302,4.1305,4.1265,4.1265,4.1265,4.1264,0,4.117,4.1182,4.1192,4.1205,4.1212,4.1226,4.1229,4.1237,4.1236,4.1239,4.1256,4.1261,4.1272,4.1277,4.1276,4.1296,4.1293,4.1288,4.1279,4.1297,4.1306,4.1309,4.1266,4.1266,4.1265,4.1265,0,0,4.1192,4.1207,4.1211,4.1217,4.1228,4.1237,4.1251,4.1263,4.127,4.1278,4.129,4.1305,4.13,4.1306,4.1306,4.1316,4.1335,4.1309,4.1309,4.1315,4.136,4.1365,4.1368,4.1333,4.1334,4.1334,4.136,0,4.1213,4.1238,4.1241,4.1263,4.1275,4.1273,4.1285,4.1293,4.1296,4.1307,4.131,4.1321,4.1314,4.1318,4.1327,4.1331,4.1344,4.1329,4.1344,4.1345,4.1344,4.1373,4.1377,4.1401,4.1363,4.1363,4.1364,0,4.1241,4.1252,4.1276,4.1287,4.1292,4.1303,4.1315,4.1325,4.1334,4.1336,4.1343,4.1342,4.1356,4.1346,4.1365,4.1355,4.1361,4.1364,4.1365,4.1367,4.1356,4.1377,4.1409,4.1413,4.1369,4.1368,4.1368,0,4.1257,4.1278,4.1295,4.1301,4.1313,4.1321,4.1326,4.1335,4.1343,4.1353,4.1358,4.1369,4.1375,4.1384,4.1386,4.1378,4.1406,4.1395,4.1408,4.1408,4.1415,4.1414,4.1449,4.1417,4.1417,4.1417,4.1417,0,4.1281,4.1296,4.1303,4.1314,4.1331,4.1333,4.135,4.1355,4.1363,4.1374,4.1372,4.1383,4.1385,4.1396,4.1397,4.1414,4.1417,4.1419,4.1419,4.142,4.142,4.1425,4.1423,4.1418,4.1418,4.1417,4.1417,0,4.1302,4.1307,4.1327,4.1337,4.1341,4.1353,4.1362,4.1372,4.1376,4.1391,4.1395,4.14,4.1413,4.1416,4.1431,4.1432,4.1453,4.1451,4.145,4.1451,4.1464,4.1463,4.1504,4.151,4.1472,4.1473,4.1473,0,4.1318,4.133,4.1342,4.1351,4.1357,4.137,4.1379,4.1381,4.139,4.1402,4.1411,4.1425,4.1436,4.1457,4.1462,4.1474,4.1473,4.1487,4.1475,4.1476,4.1475,4.1475,4.1477,4.1489,4.1489,4.149,4.149,0,4.1345,4.1347,4.136,4.1374,4.1384,4.1395,4.1405,4.1412,4.1416,4.1426,4.1441,4.1449,4.1466,4.1479,4.1492,4.1497,4.1494,4.1494,4.1498,4.1499,4.1499,4.15,4.1458,4.1493,4.1493,4.1492,4.1492,4.1492,4.1364,4.1376,4.1387,4.1402,4.141,4.142,4.1431,4.1437,4.145,4.1464,4.1465,4.1481,4.149,4.1507,4.1513,4.1525,4.1521,4.1526,4.1528,4.1529,4.1531,4.1496,4.1527,4.1527,4.1527,4.1527,4.1527,0,4.1393,4.1401,4.1414,4.143,4.1441,4.1439,4.1451,4.146,4.1475,4.1485,4.1496,4.1513,4.1527,4.1533,4.1547,4.1555,4.1555,4.1559,4.1559,4.156,4.1534,4.153,4.1559,4.1559,4.1559,4.1559,4.1559,4.1559,4.1409,4.1429,4.1433,4.1457,4.1464,4.1481,4.1488,4.1497,4.1505,4.1525,4.1537,4.1542,4.155,4.1564,4.1577,4.1578,4.1584,4.1589,4.159,4.1565,4.1562,4.1559,4.1555,4.159,4.159,4.1616,4.1616,4.1616]}]]